RH
71 70 79 93 76 60 65 64 52 51 48 43 38 40 46 51 55 57 54 44 46 49 50 58 79 74 73 72 72 72 72 70 73 71 70 71 74 74 74 73 75 74 74 74 74 72 71 70 70
70 76 73 77 61 58 64 53 52 51 44 38 42 46 55 66 62 65 50 46 43 46 45 50 83 78 74 74 72 72 71 70 69 70 69 70 74 74 73 75 74 74 74 74 71 69 70 69 71
68 71 76 67 67 64 59 55 48 49 40 36 52 48 60 70 67 50 48 45 46 48 47 57 77 76 76 74 74 73 73 74 71 68 68 69 75 75 73 73 74 74 73 72 68 69 69 70 70
57 71 73 59 60 57 56 53 46 45 39 38 46 60 57 54 51 49 48 44 45 51 48 70 78 76 76 75 73 73 72 75 75 69 68 73 74 73 73 74 74 72 71 72 68 70 70 70 72
65 66 66 60 57 52 50 49 44 46 42 44 43 60 65 66 56 49 47 42 44 49 52 58 81 77 77 74 76 75 74 75 76 74 73 74 70 72 74 74 72 69 69 69 70 71 71 72 73
65 61 59 59 50 48 46 46 46 45 44 44 44 53 76 62 56 49 43 43 44 49 52 56 75 79 75 72 72 74 74 72 75 74 74 74 69 70 72 74 71 70 71 71 72 70 70 70 71
54 57 59 55 51 51 50 46 49 44 46 42 41 59 78 66 53 49 46 47 48 50 56 57 58 68 73 72 72 75 74 72 73 73 73 72 71 73 69 74 72 70 71 70 71 71 74 72 75
56 48 54 52 55 51 46 44 42 42 48 38 41 60 78 70 56 51 51 50 52 56 54 61 62 61 64 59 74 75 76 76 72 74 76 74 71 68 70 76 76 70 73 70 71 74 74 74 77
50 45 46 44 50 49 42 45 41 38 42 40 46 48 53 60 58 53 56 58 59 59 58 55 59 62 72 70 66 72 75 74 74 73 75 74 66 57 64 72 71 72 71 74 74 73 73 75 73
48 45 44 37 39 41 41 39 42 45 41 53 66 61 61 62 62 54 53 55 56 59 61 59 61 56 64 58 69 69 66 71 74 68 74 69 72 62 62 65 69 68 74 74 72 76 77 65 64
57 39 39 38 36 35 39 40 36 44 49 47 62 70 66 64 61 51 48 48 50 55 60 63 64 68 64 61 63 59 66 63 69 78 74 68 69 64 59 65 80 63 66 52 59 58 53 63 59
42 42 42 39 39 38 38 37 40 42 42 36 52 58 62 62 55 50 48 52 54 60 61 58 61 68 67 60 62 62 64 64 60 75 72 69 66 71 87 86 79 74 55 67 63 56 60 63 69
40 34 36 34 36 35 33 37 36 43 41 40 50 58 58 57 55 50 48 53 56 59 58 58 64 73 72 75 67 64 65 61 62 66 69 63 62 69 65 71 71 72 64 63 66 68 81 78 69
16 26 34 35 34 33 32 34 34 48 44 49 55 56 53 53 53 56 57 60 59 58 58 57 66 70 68 70 75 67 64 61 64 63 67 74 64 66 59 65 67 69 65 66 78 87 92 91 88
17 22 30 33 35 35 29 34 37 47 46 53 52 54 54 53 53 58 56 57 55 57 57 60 64 62 69 72 72 65 59 54 60 65 76 74 70 73 72 64 68 66 65 77 74 72 72 88 69
17 16 15 27 35 34 30 29 34 46 46 52 52 54 55 56 53 53 53 54 56 54 61 64 55 56 60 60 70 62 61 56 58 61 66 73 77 76 76 63 65 64 65 73 69 72 83 82 90
17 13 16 15 34 32 32 30 37 45 43 52 55 51 51 55 55 54 51 53 54 58 62 69 65 60 63 67 65 66 63 61 58 59 61 72 76 76 69 68 62 73 63 66 68 67 67 68 84
15 13 14 14 20 33 34 31 34 41 44 50 53 48 52 52 52 51 51 51 52 59 62 66 65 66 70 64 68 63 58 58 58 60 60 70 66 75 74 67 73 73 74 70 68 80 75 68 71
15 17 17 12 27 31 30 30 28 39 41 44 48 52 52 51 46 45 46 47 50 59 63 66 72 73 68 64 65 64 61 59 59 60 71 74 71 72 77 71 74 76 76 76 82 79 83 73 92
15 14 10 10 15 30 26 14 14 28 38 38 39 43 46 46 46 48 46 47 49 56 62 67 69 73 72 62 66 63 64 60 58 58 66 71 71 74 72 77 73 78 68 86 80 82 77 74 91
8 7 8 9 9 15 12 13 14 23 34 37 35 34 35 39 43 45 47 46 48 52 61 65 70 72 72 70 69 71 68 68 66 65 64 66 71 71 74 75 73 74 72 76 82 78 83 92 97
6 7 7 7 8 8 10 11 18 16 24 38 35 35 34 34 37 38 37 41 43 48 54 60 65 69 68 72 72 77 64 63 58 60 60 62 70 69 69 72 75 78 67 73 73 72 76 81 96
7 7 8 9 9 8 9 9 12 15 10 10 18 27 32 34 32 34 34 35 36 43 49 54 66 72 70 73 75 69 71 58 57 58 69 74 72 70 66 72 76 77 70 74 76 80 84 73 70
6 7 9 11 8 9 10 8 9 12 16 19 19 19 18 29 32 32 35 34 37 40 48 54 69 73 72 72 74 77 76 71 63 64 59 58 58 61 71 70 74 74 70 74 72 78 81 80 77
6 6 10 11 10 10 12 12 11 11 19 32 35 37 28 21 31 34 35 38 40 46 51 54 67 70 68 69 70 72 74 74 72 68 58 62 56 57 65 75 75 67 74 72 75 79 78 79 75
8 6 9 16 12 10 14 11 9 10 17 30 35 35 25 18 26 32 35 39 43 50 54 56 60 66 65 67 72 74 72 63 60 62 55 55 53 54 64 70 70 74 73 74 77 70 69 74 74
9 9 6 9 10 10 11 11 12 16 23 33 37 40 40 34 34 38 36 40 43 49 54 56 64 68 66 60 66 72 72 73 64 70 69 59 65 55 70 72 72 73 76 78 79 71 75 78 76
7 8 9 11 17 17 12 18 19 28 32 35 41 42 43 44 42 40 39 39 44 43 46 54 63 73 84 72 64 65 70 73 69 69 71 71 66 68 71 76 74 73 74 76 82 71 75 79 71
13 14 12 10 11 14 15 13 16 30 34 44 39 44 46 45 46 45 47 50 53 51 52 54 64 73 75 64 71 67 67 65 69 65 67 69 68 70 74 78 74 74 75 74 78 79 77 81 81
12 14 14 15 23 15 16 14 18 36 37 40 40 45 50 54 54 54 58 62 65 64 62 64 62 60 70 88 85 69 71 73 64 64 63 67 70 68 73 73 75 75 74 76 81 81 74 81 83
Wind_Speed
7 6 3 2 2 1 4 5 3 10 10 4 14 3 4 3 0 3 5 8 19 17 14 12 9 10 10 9 10 9 9 9 9 10 9 8 10 10 10 11 13 13 13 14 15 14 15 16 16
5 4 1 1 1 6 4 5 9 3 4 17 7 7 3 4 3 8 12 16 20 16 13 12 8 9 11 9 10 9 9 9 9 9 8 7 8 11 11 11 13 12 14 14 16 14 15 15 15
3 1 2 1 2 4 5 4 5 8 10 15 5 5 3 3 4 14 10 18 18 15 12 12 11 10 10 10 9 8 8 9 10 9 8 7 8 11 11 11 12 13 12 14 15 14 14 14 11
3 3 3 4 8 5 3 7 11 8 9 5 8 7 6 6 10 7 18 19 17 15 12 12 13 11 11 9 8 6 6 7 10 11 11 8 8 11 10 10 12 12 12 13 14 12 13 13 14
2 1 4 4 6 3 3 6 5 5 6 5 4 6 6 4 9 17 17 16 17 15 11 12 11 11 10 9 8 6 6 5 8 9 10 10 10 10 9 11 11 13 12 12 12 12 11 10 9
2 1 4 4 4 2 3 3 2 7 9 10 13 9 5 6 14 16 15 15 14 14 11 12 11 11 10 8 7 6 6 6 6 7 8 9 10 10 9 9 9 11 11 9 10 8 7 7 7
1 2 3 3 3 1 1 5 4 8 8 8 12 7 4 7 13 14 14 13 13 12 11 10 10 10 10 8 7 5 6 6 6 8 7 9 9 8 8 8 8 12 11 9 7 8 9 6 9
1 1 3 2 2 4 5 4 6 8 5 13 5 7 8 12 14 14 13 12 12 10 10 9 8 8 6 7 6 8 6 6 7 8 8 10 9 9 8 7 8 9 11 9 8 8 7 6 9
1 2 4 2 4 5 6 5 4 5 10 5 5 6 14 20 16 15 13 12 10 9 10 9 9 8 7 5 5 7 6 4 7 8 8 8 5 7 7 6 9 9 11 8 9 7 7 6 6
1 2 1 1 2 6 6 6 9 5 12 6 14 16 21 20 17 17 16 14 13 12 11 9 7 7 7 5 4 5 4 4 4 7 7 5 6 5 5 6 8 8 9 9 8 8 7 4 4
1 3 3 1 3 7 7 7 5 11 8 8 15 20 20 19 17 16 15 14 14 12 10 10 8 7 7 5 4 4 2 4 4 6 7 5 4 4 4 4 3 4 7 4 5 4 3 5 2
4 2 3 4 4 6 7 6 5 10 2 12 19 23 21 19 18 18 17 15 14 13 12 11 10 8 7 4 5 5 4 4 4 4 6 5 4 4 2 2 3 3 3 5 2 2 2 4 5
2 2 4 6 7 7 5 4 3 8 6 16 19 20 20 18 17 14 13 13 13 14 13 12 11 9 8 6 5 5 4 4 5 5 5 4 4 4 4 4 4 4 4 3 3 2 1 1 3
7 3 2 5 4 4 3 3 5 2 15 17 21 20 18 19 18 14 14 14 15 14 14 13 13 11 10 8 7 6 5 5 4 4 4 5 3 3 3 4 4 3 4 4 3 1 1 1 1
4 5 3 4 5 1 1 2 2 14 15 17 18 18 17 16 17 18 18 17 15 13 14 14 13 12 11 10 8 6 6 6 5 5 5 6 5 4 4 4 4 4 3 3 3 3 1 2 2
5 3 5 4 5 3 2 1 4 18 18 16 15 15 16 17 19 16 15 14 13 13 15 14 12 13 12 10 8 7 7 6 6 5 5 6 6 5 5 4 4 4 4 3 3 4 2 2 1
7 5 6 4 4 3 3 3 5 15 15 15 16 16 16 16 15 15 15 14 14 14 14 14 14 14 13 11 8 8 8 7 6 6 6 7 6 7 5 4 4 5 4 4 4 3 3 3 2
6 5 4 4 2 4 3 11 3 13 14 17 16 16 15 15 20 18 17 16 15 14 13 13 12 13 13 9 8 7 7 7 7 7 7 8 7 8 7 5 5 5 4 5 5 5 3 4 4
3 2 4 2 2 4 6 13 8 13 14 15 17 18 18 20 18 16 17 17 16 15 14 15 15 14 10 10 9 9 9 8 8 8 10 9 9 9 9 6 6 7 7 7 6 4 6 5 1
3 2 0 3 3 3 5 13 8 13 20 20 19 19 19 19 19 19 19 18 19 19 19 17 16 15 13 10 9 7 8 8 8 8 9 10 10 10 9 9 7 8 7 9 8 8 5 4 4
2 4 4 3 4 1 7 6 4 2 11 15 19 18 20 20 21 20 20 21 20 20 20 18 17 16 14 13 8 7 5 4 6 8 8 10 11 11 11 10 8 8 8 6 7 8 9 5 2
3 3 1 4 4 6 3 6 2 4 6 11 15 18 19 21 21 19 21 22 22 20 18 18 17 17 15 15 12 13 10 10 10 8 8 8 12 12 12 11 9 9 7 8 7 7 8 6 3
3 5 4 2 2 3 1 4 2 4 3 5 10 18 19 21 23 23 25 23 23 19 18 18 18 16 15 15 14 12 12 10 7 7 7 9 9 11 11 11 10 9 8 8 8 7 8 7 7
3 0 3 2 1 3 3 5 2 5 12 15 13 12 11 20 21 23 22 19 18 17 17 16 16 16 16 16 17 15 14 12 9 8 7 7 7 8 11 10 10 9 8 9 8 8 9 9 8
1 2 3 0 2 1 1 3 3 2 9 12 18 17 12 13 20 20 22 19 17 19 19 17 17 17 17 17 17 17 16 14 13 11 9 9 8 8 9 11 10 9 10 10 8 8 9 10 9
3 3 4 3 4 5 2 4 4 2 9 10 9 11 4 8 16 18 19 18 18 19 19 19 18 17 17 17 17 14 14 10 11 11 9 8 9 9 9 10 10 12 11 10 9 8 9 9 10
4 2 3 5 0 4 4 3 8 4 12 14 11 10 9 5 8 11 16 16 15 16 18 17 15 15 14 14 13 14 13 14 12 11 9 8 9 9 10 10 10 11 11 11 10 8 10 10 11
2 7 2 2 2 4 1 3 6 17 16 15 14 12 6 2 7 9 9 11 9 9 9 12 13 12 9 13 13 11 13 13 13 11 13 11 11 11 10 10 10 10 10 9 10 9 11 11 9
5 4 6 3 3 3 4 1 2 9 10 12 12 9 6 3 4 4 5 5 6 7 9 11 12 12 11 11 11 13 11 11 11 12 13 13 12 12 12 11 10 10 10 10 10 11 11 11 11
1 3 1 2 3 1 2 3 2 7 8 9 8 6 4 5 6 7 8 8 8 8 9 11 12 11 11 8 5 11 9 10 12 14 16 13 14 12 13 13 12 11 11 10 11 11 10 11 12
Wind_Direction
161 164 137 202 210 195 75 66 100 126 151 167 149 177 164 50 196 43 122 150 140 148 152 155 147 140 131 127 125 126 125 128 127 124 120 127 118 116 122 117 112 114 114 113 106 113 116 112 118
156 156 135 183 73 94 73 93 117 101 126 141 130 127 114 89 52 120 135 150 144 145 149 147 140 143 142 137 128 121 127 129 135 138 141 127 112 119 125 123 110 112 109 110 111 114 114 117 121
153 45 253 89 85 72 99 99 117 104 133 154 114 62 60 46 72 142 131 147 142 142 148 138 148 143 141 141 132 128 132 135 128 140 143 133 127 117 125 112 114 109 114 117 114 119 121 114 115
153 172 220 64 64 52 70 129 121 119 122 147 117 82 83 50 142 146 143 148 142 142 146 141 152 155 151 140 134 143 132 122 132 135 145 133 123 115 120 116 111 119 115 115 122 125 119 125 124
155 182 60 77 47 68 60 113 113 113 123 121 130 97 85 30 118 138 146 151 144 142 145 145 157 156 146 138 128 132 127 130 133 113 135 129 125 116 108 114 127 121 117 121 128 128 131 125 121
136 264 54 68 71 48 109 140 120 112 119 125 107 106 70 118 136 144 147 150 146 143 144 143 152 142 137 142 138 140 139 143 134 152 128 127 126 119 118 119 129 125 110 115 116 119 125 129 128
17 80 98 95 89 101 75 141 156 128 130 117 132 92 101 148 143 145 149 147 147 145 145 150 152 148 147 145 152 146 165 152 147 156 143 128 134 128 131 119 130 124 120 118 107 134 126 125 128
75 101 118 118 96 104 142 132 143 139 86 131 131 148 161 164 152 147 149 148 149 154 156 155 154 145 150 159 162 152 148 144 150 148 158 134 141 127 121 119 130 124 124 124 106 108 87 103 128
152 64 48 77 150 133 154 131 100 98 132 94 17 133 133 147 151 152 152 155 159 165 168 168 162 154 154 155 165 150 157 146 145 154 142 138 139 141 131 127 126 128 128 116 99 92 82 90 124
59 77 50 290 116 138 144 140 137 133 148 95 80 105 129 145 160 165 171 170 174 174 175 174 172 164 160 166 165 150 150 136 142 145 142 131 135 134 125 137 126 114 113 117 107 82 76 78 104
51 60 169 211 127 135 142 130 140 145 187 175 148 144 148 155 169 173 179 180 181 177 180 182 174 174 176 168 170 159 168 140 144 137 136 137 135 157 140 149 107 146 126 136 129 122 81 73 59
327 287 256 134 150 131 155 140 154 168 147 166 155 157 155 164 174 180 182 183 184 185 187 186 184 178 182 177 181 172 168 165 158 148 149 152 163 154 110 130 125 113 134 123 113 116 91 80 84
292 90 121 140 151 120 140 148 120 189 124 147 149 159 165 173 180 182 183 186 188 192 190 192 186 186 182 190 186 184 186 185 166 169 163 167 171 173 175 145 153 140 144 148 144 160 67 58 61
321 330 90 148 174 145 173 125 170 97 134 146 156 170 172 179 177 175 186 190 194 196 195 192 196 191 188 192 198 195 189 195 183 175 174 188 188 185 187 176 178 173 174 167 144 159 119 80 71
300 347 94 89 154 89 181 174 159 150 153 158 171 173 177 184 179 189 189 192 194 198 196 197 200 195 196 197 198 201 197 189 198 186 186 191 199 193 202 203 196 191 176 176 173 184 167 135 170
1 27 31 31 163 57 234 328 127 161 159 166 177 180 183 188 194 196 197 196 196 197 200 198 201 199 198 203 200 206 202 198 201 208 192 204 203 206 205 209 216 202 198 191 212 208 174 171 134
31 11 6 17 200 99 247 324 79 172 168 168 184 194 188 189 204 204 202 203 199 201 199 202 202 198 198 203 209 211 211 210 204 208 211 200 205 201 222 225 221 215 222 210 216 207 236 223 208
335 348 339 351 30 212 226 261 214 188 183 180 189 197 200 203 204 203 203 204 204 204 203 202 205 204 195 193 203 211 216 218 215 216 217 210 212 203 213 227 230 220 227 225 220 224 224 269 244
294 241 279 301 47 221 247 273 248 198 197 196 197 197 197 207 213 213 209 203 201 199 199 203 200 203 195 196 199 205 212 213 218 220 221 218 215 213 208 221 222 220 227 233 230 224 241 236 191
166 209 109 290 60 248 327 293 299 206 214 211 201 204 203 204 205 207 212 205 204 199 198 197 205 201 202 201 203 214 215 223 225 220 218 218 217 209 210 213 218 220 225 218 215 215 231 244 185
188 36 3 336 354 160 319 259 268 194 228 220 225 216 204 203 206 206 205 209 207 204 200 197 198 198 203 206 194 195 189 218 219 228 230 218 214 210 208 208 216 211 227 230 219 210 221 235 159
24 47 346 323 295 318 323 306 318 327 261 231 233 227 214 210 205 209 207 210 209 211 203 202 200 200 202 199 204 210 210 220 221 221 228 223 209 211 208 208 204 211 219 230 223 218 228 229 197
24 35 35 0 267 273 89 275 3 335 316 287 246 243 222 214 212 202 208 210 211 205 204 203 199 200 199 198 209 209 224 228 229 223 227 225 209 214 212 210 206 213 223 227 231 221 221 225 241
113 202 74 90 284 214 43 330 51 18 328 314 312 297 263 216 214 213 203 209 207 203 201 201 196 201 199 200 205 211 221 227 226 228 230 229 220 210 216 214 211 212 219 222 221 224 229 235 236
147 292 333 74 6 42 81 272 288 207 340 303 302 299 269 219 207 206 202 199 201 198 200 198 194 200 202 206 210 213 220 220 226 223 229 236 225 221 216 211 212 216 220 223 221 219 232 230 236
65 350 27 6 332 331 147 344 349 123 338 336 337 336 290 216 197 201 199 199 199 198 198 197 195 201 201 205 211 212 219 223 232 230 233 239 243 230 225 217 221 225 226 225 220 226 233 232 238
133 93 49 109 164 259 356 299 273 353 0 7 14 30 35 125 170 192 197 197 198 198 199 197 194 204 201 215 216 211 210 216 224 226 224 229 245 252 233 223 222 227 231 230 225 233 240 235 240
25 126 170 55 279 315 17 276 308 336 337 349 15 14 23 116 177 187 194 193 200 204 191 195 197 195 176 196 212 222 215 214 217 231 235 234 236 243 246 227 224 225 227 224 222 234 235 238 244
139 136 70 111 322 292 294 319 234 300 323 333 352 3 3 11 69 92 107 110 138 151 179 187 189 170 181 203 206 211 218 229 231 232 245 240 237 233 243 237 233 228 225 222 221 236 247 236 252
334 95 111 333 156 77 330 278 8 305 314 312 319 328 357 48 70 88 104 126 142 157 176 191 190 182 182 209 231 229 198 222 229 232 237 241 244 232 237 243 237 232 229 221 222 231 241 240 243